WetterOnline ( https://www.wetteronline.at )

Wetter aktuell Sonthofen

Aktuelles Wetter: Oberstdorf (812m)

6-stündlich | Neueste Meldungen
Ortszeit Temperatur Wetter
Do, 09.07. 8:00 16.0° C wolkig
Do, 09.07. 2:00 11.6° C fast wolkenlos
Mi, 08.07. 20:00 22.1° C bedeckt
Mi, 08.07. 14:00 23.8° C fast wolkenlos
Mi, 08.07. 8:00 12.6° C wolkenlos
Mi, 08.07. 2:00 9.4° C wolkenlos
Di, 07.07. 20:00 18.4° C wolkenlos
Di, 07.07. 14:00 19.8° C wolkenlos
Ortszeit Temperatur Wetter
Do, 09.07. 8:30 18.1° C fast wolkenlos
Do, 09.07. 8:20 18.1° C fast wolkenlos
Do, 09.07. 8:10 16.5° C leicht bewölkt
Do, 09.07. 8:00 16.0° C wolkig
Do, 09.07. 7:50 16.0° C wolkig
Do, 09.07. 7:40 14.7° C wolkig
Do, 09.07. 7:30 12.1° C fast wolkenlos
Do, 09.07. 7:00 10.2° C fast wolkenlos
Do, 09.07. 6:30 9.2° C wolkenlos
Do, 09.07. 6:00 9.9° C fast wolkenlos
Do, 09.07. 5:30 9.8° C fast wolkenlos
Do, 09.07. 5:00 10.5° C wolkenlos
Ortszeit Relative Feuchte Sichtweite
Do, 09.07. 8:00 72% >70 km
Do, 09.07. 2:00 87% 60 km
Mi, 08.07. 20:00 42% >70 km
Mi, 08.07. 14:00 41% 30 km
Mi, 08.07. 8:00 79% 40 km
Mi, 08.07. 2:00 92% 50 km
Di, 07.07. 20:00 55% 60 km
Di, 07.07. 14:00 45% 55 km
Ortszeit Relative Feuchte Sichtweite
Do, 09.07. 8:30 67% 50 km
Do, 09.07. 8:20 67% -
Do, 09.07. 8:10 66% -
Do, 09.07. 8:00 72% >70 km
Do, 09.07. 7:50 72% -
Do, 09.07. 7:40 76% -
Do, 09.07. 7:30 87% 55 km
Do, 09.07. 7:00 94% 60 km
Do, 09.07. 6:30 92% >70 km
Do, 09.07. 6:00 94% 60 km
Do, 09.07. 5:30 92% >70 km
Do, 09.07. 5:00 88% 65 km
Ortszeit Niederschlagsmenge Niederschlagsart
Do, 09.07. 8:00 0.0 l/m2 in 12 Std. -
Do, 09.07. 2:00 0.0 l/m2 in 6 Std. -
Mi, 08.07. 20:00 0.0 l/m2 in 12 Std. -
Mi, 08.07. 14:00 0.0 l/m2 in 6 Std. -
Mi, 08.07. 8:00 0.0 l/m2 in 12 Std. -
Mi, 08.07. 2:00 0.0 l/m2 in 6 Std. -
Di, 07.07. 20:00 0.0 l/m2 in 12 Std. -
Di, 07.07. 14:00 0.0 l/m2 in 6 Std. -
Ortszeit Niederschlagsmenge Niederschlagsart
Do, 09.07. 8:30 0.0 l/m2 in 1 Std. -
Do, 09.07. 8:20 keine Meldung -
Do, 09.07. 8:10 keine Meldung -
Do, 09.07. 8:00 0.0 l/m2 in 1 Std. -
Do, 09.07. 7:50 keine Meldung -
Do, 09.07. 7:40 keine Meldung -
Do, 09.07. 7:30 0.0 l/m2 in 1 Std. -
Do, 09.07. 7:00 0.0 l/m2 in 1 Std. -
Do, 09.07. 6:30 0.0 l/m2 in 1 Std. -
Do, 09.07. 6:00 0.0 l/m2 in 1 Std. -
Do, 09.07. 5:30 0.0 l/m2 in 1 Std. -
Do, 09.07. 5:00 0.0 l/m2 in 1 Std. -
Ortszeit Stärke Spitze Richtung
km/h Bft. km/h Grad Sektor
Do, 09.07. 8:00 0 0 11 - -
Do, 09.07. 2:00 7 2 15 170° S
Mi, 08.07. 20:00 7 2 36 360° N
Mi, 08.07. 14:00 6 1 22 340° N
Mi, 08.07. 8:00 4 1 11 130° SO
Mi, 08.07. 2:00 4 1 18 170° S
Di, 07.07. 20:00 7 2 29 270° W
Di, 07.07. 14:00 15 3 26 10° N
Ortszeit Stärke Spitze Richtung
km/h Bft. km/h Grad Sektor
Do, 09.07. 8:30 0 0 4 - -
Do, 09.07. 8:20 0 0 - 170° S
Do, 09.07. 8:10 4 1 - 140° SO
Do, 09.07. 8:00 0 0 7 - -
Do, 09.07. 7:50 2 1 - 80° O
Do, 09.07. 7:40 2 1 - 110° O
Do, 09.07. 7:30 4 1 7 150° SO
Do, 09.07. 7:00 6 1 7 180° S
Do, 09.07. 6:30 4 1 7 200° S
Do, 09.07. 6:00 4 1 7 170° S
Do, 09.07. 5:30 6 1 7 170° S
Do, 09.07. 5:00 4 1 11 170° S
Ortszeit Untergrenze Bedeckung Gattung
total tief tief mittel hoch
Do, 09.07. 8:00 6300 m 7/8 3/8 - - -
Do, 09.07. 2:00 10500 m 1/8 0/8 - - -
Mi, 08.07. 20:00 4800 m 8/8 8/8 - - -
Mi, 08.07. 14:00 8100 m 2/8 0/8 - - -
Mi, 08.07. 8:00 - 0/8 0/8 - - -
Mi, 08.07. 2:00 - 0/8 0/8 - - -
Di, 07.07. 20:00 1500 m 0/8 0/8 - - -
Di, 07.07. 14:00 - 0/8 0/8 - - -
Ortszeit Bedeckungsgrad in Achtel und Wolkenuntergrenze
Do, 09.07. 8:30 2(7500m)
Do, 09.07. 8:20 2(7500m)
Do, 09.07. 8:10 4(7500m)
Do, 09.07. 8:00 2(6300m) 3(6600m) 7(7500m)
Do, 09.07. 7:50 2(6300m) 3(6600m) 7(7500m)
Do, 09.07. 7:40 3(6000m) 4(6600m) 5(7500m)
Do, 09.07. 7:30 2(7200m) 4(7200m)
Do, 09.07. 7:00 1(6900m)
Do, 09.07. 6:30 1(6900m)
Do, 09.07. 6:00 1(9000m)
Do, 09.07. 5:30 1(9000m)
Do, 09.07. 5:00 keine Wolken
Ortszeit Stationsdruck (hPa) Tendenz (hPa in 3 Std.)
Do, 09.07. 8:00 927 + 0,5
Do, 09.07. 2:00 928 + 0,1
Mi, 08.07. 20:00 926 + 0,8
Mi, 08.07. 14:00 925 - 0,7
Mi, 08.07. 8:00 926 + 0,2
Mi, 08.07. 2:00 927 0,0
Di, 07.07. 20:00 926 - 0,1
Di, 07.07. 14:00 927 - 1,0
Ortszeit Stationsdruck (hPa) Tendenz (hPa in 3 Std.)
Do, 09.07. 8:30 927 + 0,4
Do, 09.07. 8:20 927 keine Meldung
Do, 09.07. 8:10 927 keine Meldung
Do, 09.07. 8:00 927 + 0,5
Do, 09.07. 7:50 927 keine Meldung
Do, 09.07. 7:40 927 keine Meldung
Do, 09.07. 7:30 927 + 0,3
Do, 09.07. 7:00 927 + 0,4
Do, 09.07. 6:30 927 + 0,1
Do, 09.07. 6:00 927 - 0,1
Do, 09.07. 5:30 927 - 0,4
Do, 09.07. 5:00 927 - 0,7
Ortszeit Schneehöhe (cm)
Do, 09.07. 8:00 -
Do, 09.07. 2:00 -
Mi, 08.07. 20:00 -
Mi, 08.07. 14:00 -
Mi, 08.07. 8:00 -
Mi, 08.07. 2:00 -
Di, 07.07. 20:00 -
Di, 07.07. 14:00 -
Ortszeit Schneehöhe (cm)
Do, 09.07. 8:30 -
Do, 09.07. 8:20 -
Do, 09.07. 8:10 -
Do, 09.07. 8:00 -
Do, 09.07. 7:50 -
Do, 09.07. 7:40 -
Do, 09.07. 7:30 -
Do, 09.07. 7:00 -
Do, 09.07. 6:30 -
Do, 09.07. 6:00 -
Do, 09.07. 5:30 -
Do, 09.07. 5:00 -
Link zu dieser Seite / Seite empfehlen

Das Wetter in ...